Weather History for K8D3 - May, 2013

Change the Weather History Date:

Monday, May 27, 2013

  Actual Average Record
Temperature  
Mean Temperature 56 °F 61 °F  
Max Temperature 61 °F 73 °F 98 °F (1934)
Min Temperature 51 °F 49 °F 32 °F (1965)
Degree Days  
Heating Degree Days 9 5  
Month to date heating degree days 305 242  
Since 1 July heating degree days 9065 8201  
Cooling Degree Days 0 1  
Month to date cooling degree days 21 18  
Year to date cooling degree days 21 19  
Growing Degree Days 6 (Base 50)    
Moisture  
Dew Point 53 °F    
Average Humidity 92    
Maximum Humidity 100    
Minimum Humidity 84    
Precipitation  
Precipitation 0.00 in 0.09 in 5.50 in (1954)
Month to date precipitation 2.24 2.36  
Year to date precipitation 7.86 6.62  
Sea Level Pressure  
Sea Level Pressure 29.86 in    
Wind  
Wind Speed 11 mph (SSE)    
Max Wind Speed 20 mph    
Max Gust Speed 24 mph    
T = Trace of Precipitation, MM = Missing Value Source: NWS Daily Summary

Daily Weather History Graph

Daily Weather History Graph

Search for Another Location

Airport or City:

Trip Planner

Search our weather history database for the weather conditions in past years. The results will help you decide how hot, cold, wet, or windy it might be!

Date:

Astronomy

May. 27, 2013 Rise Set
Actual Time 5:45 AM CDT 9:05 PM CDT
Civil Twilight 5:08 AM CDT 9:42 PM CDT
Nautical Twilight 4:21 AM CDT 10:30 PM CDT
Astronomical Twilight 3:21 AM CDT 11:30 PM CDT
Moon 11:41 PM CDT (5/27) 8:26 AM CDT (5/27)
Length of Visible Light 16h 33m
Length of Day
15h 20m
Waning Gibbous, 91% of the Moon is Illuminated
May 27
Waning Gibbous
May 31
Last Quarter
Jun 8
New
Jun 16
First Quarter
Jun 23
Full

Hourly Weather History & Observations

Time (CDT) Temp. Dew Point Humidity Pressure Visibility Wind Dir Wind Speed Gust Speed Precip Events Conditions
12:56 AM 51.1 °F 51.1 °F 100% 29.97 in - SSE 10.4 mph - N/A   Unknown
1:56 AM 52.0 °F 51.1 °F 97% 29.96 in - SSE 17.3 mph 21.9 mph N/A   Unknown
2:56 AM 52.0 °F 51.1 °F 97% 29.95 in - SE 13.8 mph - N/A   Unknown
3:56 AM 51.1 °F 51.1 °F 100% 29.92 in - SSE 15.0 mph - N/A   Unknown
4:56 AM 52.0 °F 51.1 °F 97% 29.93 in - SSE 11.5 mph - N/A   Unknown
5:56 AM 51.1 °F 51.1 °F 100% 29.92 in - SE 11.5 mph - N/A   Unknown
6:56 AM 52.0 °F 51.1 °F 97% 29.90 in - SE 13.8 mph - N/A   Unknown
7:56 AM 52.0 °F 52.0 °F 100% 29.89 in - SE 10.4 mph - N/A   Unknown
8:56 AM 53.1 °F 53.1 °F 100% 29.90 in - SSE 10.4 mph - N/A   Unknown
9:56 AM 54.0 °F 53.1 °F 97% 29.90 in - SSE 15.0 mph - N/A   Unknown
10:56 AM 54.0 °F 53.1 °F 97% 29.89 in - SE 11.5 mph - N/A   Unknown
11:56 AM 55.9 °F 54.0 °F 93% 29.86 in - SSE 10.4 mph - N/A   Unknown
12:56 PM 57.0 °F 54.0 °F 89% 29.85 in - SE 9.2 mph - N/A   Unknown
1:56 PM 57.9 °F 55.0 °F 90% 29.85 in - SE 6.9 mph - N/A   Unknown
2:56 PM 60.1 °F 55.0 °F 83% 29.85 in - SSE 10.4 mph - N/A   Unknown
3:56 PM 60.1 °F 55.9 °F 86% 29.83 in - SSE 10.4 mph - N/A   Unknown
4:56 PM 61.0 °F 55.9 °F 83% 29.81 in - SSE 11.5 mph - N/A   Unknown
5:56 PM 60.1 °F 55.0 °F 83% 29.83 in - SSE 9.2 mph - N/A   Unknown
6:56 PM 60.1 °F 55.0 °F 83% 29.80 in - South 12.7 mph - N/A   Unknown
7:56 PM 59.0 °F 55.0 °F 87% 29.79 in - SSE 10.4 mph - N/A   Unknown
8:56 PM 59.0 °F 55.0 °F 87% 29.79 in - SSE 10.4 mph - N/A   Unknown
9:56 PM 57.9 °F 55.0 °F 90% 29.78 in - SSE 8.1 mph - N/A   Unknown
10:56 PM 57.9 °F 55.0 °F 90% 29.79 in - South 4.6 mph - N/A   Unknown
11:56 PM 57.9 °F 55.0 °F 90% 29.76 in - SSE 11.5 mph - N/A   Unknown